This is the latest recevied weather packets stored in our database for station/object KA9CBS. If no packets are shown the sender has not sent any weather packets the latest 10 day(s).
| Time | Temp. | Humidity | Pressure | Rain* | Wind** | Luminosity | Snow |
|---|---|---|---|---|---|---|---|
| 1777937634 | 24.44° C | 47% | 1005.7 hPa | 0 mm | - | 44 W/m² | - |
| 1777937330 | 24.44° C | 47% | 1005.9 hPa | 0 mm | - | 46 W/m² | - |
| 1777937028 | 24.44° C | 46% | 1005.9 hPa | 0 mm | - | 47 W/m² | - |
| 1777936724 | 24.44° C | 46% | 1006.2 hPa | 0 mm | - | 57 W/m² | - |
| 1777936421 | 24.44° C | 46% | 1006.1 hPa | 0 mm | - | 52 W/m² | - |
| 1777936117 | 24.44° C | 47% | 1006 hPa | 0 mm | - | 53 W/m² | - |
| 1777935815 | 25° C | 47% | 1006 hPa | 0 mm | - | 95 W/m² | - |
| 1777935514 | 25° C | 47% | 1006.1 hPa | 0 mm | - | 197 W/m² | - |
| 1777935210 | 25° C | 47% | 1006.2 hPa | 0 mm | - | 98 W/m² | - |
| 1777934907 | 24.44° C | 46% | 1006.1 hPa | 0 mm | - | 131 W/m² | - |
| 1777934604 | 24.44° C | 47% | 1006.4 hPa | 0 mm | - | 164 W/m² | - |
| 1777934301 | 23.89° C | 46% | 1006.2 hPa | 0 mm | - | 142 W/m² | - |
| 1777933996 | 23.89° C | 49% | 1006.4 hPa | 0 mm | - | 136 W/m² | - |
| 1777933693 | 23.89° C | 47% | 1006.2 hPa | 0 mm | - | 123 W/m² | - |
| 1777933390 | 23.89° C | 49% | 1006.4 hPa | 0 mm | - | 121 W/m² | - |
| 1777933089 | 23.89° C | 47% | 1006.5 hPa | 0 mm | - | 122 W/m² | - |
| 1777932785 | 23.89° C | 47% | 1006.5 hPa | 0 mm | - | 128 W/m² | - |
| 1777932481 | 23.89° C | 46% | 1006.5 hPa | 0 mm | - | 136 W/m² | - |
| 1777932178 | 23.89° C | 46% | 1006.8 hPa | 0 mm | - | 121 W/m² | - |
| 1777931876 | 23.89° C | 48% | 1006.8 hPa | 0 mm | - | 233 W/m² | - |
| 1777931572 | 23.89° C | 49% | 1006.6 hPa | 0 mm | - | 190 W/m² | - |
| 1777931268 | 23.89° C | 47% | 1006.4 hPa | 0 mm | - | 223 W/m² | - |
| 1777930965 | 23.33° C | 47% | 1007.1 hPa | 0 mm | - | 118 W/m² | - |
| 1777930661 | 23.33° C | 47% | 1006.9 hPa | 0 mm | - | 114 W/m² | - |
| 1777930358 | 23.33° C | 45% | 1007.5 hPa | 0 mm | - | 53 W/m² | - |
* Rain latest hour (hover to see other rain measurements)
** Current wind speed in m/s (hover to see current wind gust speed)